This demonstration page uses our WeatherBlox Daily Observations layout. Learn more.

Left ArrowRight Arrow

Hourly Observations for January 13, 2019

Temp ( °F °C ) Dew Point ( °F °C ) Humidity (%) Winds ( mph kmh ) Pressure ( in mb ) Visibility ( mi km ) Precip ( " mm )
12:59 am 00:59 Cloudy with Light Rain 40 4.4 37 2.8 89 89 ENE 10 17 30.37 1028 8 13 0.03 0.76
1:59 am 01:59 Cloudy with Light Rain 40 4.4 38 3.3 93 93 NE 9 15 30.36 1028 7 11 0.03 0.76
2:18 am 02:18 Cloudy with Light Rain 40 4.4 38 3.3 93 93 ENE 8 13 30.36 1028 5 8 0.01 0.25
2:59 am 02:59 Cloudy with Light Rain 41 5 38 3.3 89 89 ENE 12 19 30.33 1027 7 11 0.04 1.02
3:59 am 03:59 Cloudy with Light Rain 41 5 39 3.9 93 93 ENE 12 19 30.29 1026 7 11 0.05 1.27
4:59 am 04:59 Cloudy with Light Rain 41 5 39 3.9 93 93 NE 12 19 30.28 1025 7 11 0.02 0.51
5:59 am 05:59 Cloudy with Light Rain 41 5 39 3.9 93 93 NE 15 24 30.24 1024 8 13 0.03 0.76
6:59 am 06:59 Cloudy with Light Rain 42 5.6 40 4.4 92 92 NE 13 20 30.24 1024 5 8 0.07 1.78
7:27 am 07:27 Cloudy with Light Rain 42 5.6 40 4.4 92 92 NE 18 30 30.21 1023 5 8 0.04 1.02
7:37 am 07:37 Cloudy with Light Rain 42 5.6 40 4.4 92 92 NE 17 28 30.21 1023 6 10 0.05 1.27
7:59 am 07:59 Cloudy with Light Rain 42 5.6 40 4.4 92 92 NE 16 26 30.22 1023 3 5 0.08 2.03
8:08 am 08:08 Cloudy with Light Rain 42 5.6 40 4.4 92 92 NE 15 24 30.21 1023 2 3 0.02 0.51
8:22 am 08:22 Cloudy with Light Rain 42 5.6 40 4.4 92 92 NE 16 26 30.21 1023 3 5 0.04 1.02
8:56 am 08:56 Cloudy with Light Rain 43 6 39 4 87 87 NE 17 28 30.21 1023 3 4 0.11 2.79
8:59 am 08:59 Cloudy with Light Rain 42 5.6 40 4.4 92 92 NE 18 30 30.21 1023 3 4 0.11 2.79
9:35 am 09:35 Cloudy with Rain 42 5.6 40 4.4 92 92 NE 18 30 30.21 1023 2 3 0.18 4.57
9:59 am 09:59 Cloudy with Rain 42 5.6 40 4.4 92 92 NNE 18 30 30.21 1023 2 3 0.32 8.13
10:17 am 10:17 Cloudy with Rain 41 5 40 4.4 96 96 NNE 17 28 30.24 1024 2 3 0.09 2.29
10:59 am 10:59 Cloudy with Light Rain 42 5.6 39 3.9 89 89 NE 20 31 30.19 1022 3 4 0.25 6.35
11:08 am 11:08 Cloudy with Light Rain 42 5.6 40 4.4 92 92 NE 20 31 30.18 1022 3 5 0.02 0.51
11:15 am 11:15 Cloudy with Light Rain 42 5.6 40 4.4 92 92 NE 20 31 30.18 1022 3 4 0.03 0.76
11:23 am 11:23 Cloudy with Light Rain 42 5.6 40 4.4 92 92 NE 18 30 30.18 1022 3 5 0.05 1.27
11:33 am 11:33 Cloudy with Light Rain 42 5.6 40 4.4 92 92 NE 20 31 30.15 1021 3 4 0.06 1.52
11:59 am 11:59 Cloudy with Light Rain 42 5.6 40 4.4 92 92 NE 17 28 30.13 1020 4 6 0.06 1.52
12:50 pm 12:50 Cloudy with Light Rain 43 6.1 40 4.4 89 89 NE 20 31 30.09 1019 2 2 0.01 0.25
12:59 pm 12:59 Cloudy with Light Rain 43 6.1 40 4.4 89 89 NE 18 30 30.09 1019 2 3 0.02 0.51
1:07 pm 13:07 Cloudy with Light Rain 43 6.1 41 5 93 93 NE 21 33 30.09 1019 3 4 0.00 0.03
1:17 pm 13:17 Cloudy with Light Rain 43 6.1 41 5 93 93 NE 18 30 30.09 1019 4 6 0.00 0.03
1:30 pm 13:30 Cloudy with Light Rain 43 6.1 40 4.4 89 89 NE 21 33 30.09 1019 3 4 0.00 0.03
1:45 pm 13:45 Cloudy with Light Rain 43 6.1 41 5 93 93 NE 20 31 30.09 1019 2 2 0.01 0.25
1:59 pm 13:59 Cloudy with Light Rain 43 6.1 41 5 93 93 NE 18 30 30.07 1018 2 2 0.02 0.51
2:17 pm 14:17 Cloudy with Light Rain 43 6.1 41 5 93 93 NE 18 30 30.06 1018 2 2 0.01 0.25
2:30 pm 14:30 Cloudy with Light Rain 43 6.1 41 5 93 93 NE 16 26 30.09 1019 1 2 0.02 0.51
2:42 pm 14:42 Cloudy with Light Rain 43 6.1 41 5 93 93 NE 16 26 30.09 1019 1 2 0.03 0.76
2:59 pm 14:59 Cloudy with Light Rain 43 6.1 42 5.6 97 97 NNE 14 22 30.08 1019 1 2 0.05 1.27
3:19 pm 15:19 Cloudy with Light Rain 43 6.1 41 5 93 93 NNE 16 26 30.09 1019 1 2 0.01 0.25
3:56 pm 15:56 Cloudy with Light Rain 43 6 41 5 93 93 NNE 13 20 30.06 1018 2 3 0.02 0.51
3:59 pm 15:59 Cloudy with Mist and Fog 43 6.1 41 5 93 93 NNE 17 28 30.06 1018 2 3 0.03 0.76
4:08 pm 16:08 Cloudy with Mist and Fog 43 6.1 41 5 93 93 NNE 15 24 30.06 1018 2 2 0.00 0.00
4:17 pm 16:17 Cloudy with Mist and Fog 43 6.1 41 5 93 93 NNE 16 26 30.06 1018 2 3 0.00 0.00
4:31 pm 16:31 Cloudy with Light Rain 43 6.1 41 5 93 93 NNE 16 26 30.06 1018 2 3 0.00 0.03
4:48 pm 16:48 Cloudy with Light Rain 43 6.1 41 5 93 93 NNE 16 26 30.06 1018 2 3 0.00 0.03
4:57 pm 16:57 Cloudy with Drizzle 43 6 41 5 93 93 NNE 16 26 30.06 1018 2 2 0.00 0.03
4:59 pm 16:59 Cloudy with Drizzle 43 6.1 41 5 93 93 N 17 28 30.06 1018 2 2 0.00 0.03
5:25 pm 17:25 Cloudy with Drizzle 42 5.6 40 4.4 92 92 N 17 28 30.09 1019 2 3 0.01 0.25
5:42 pm 17:42 Cloudy with Drizzle 41 5 40 4.4 96 96 N 21 33 30.09 1019 2 3 0.01 0.25
5:59 pm 17:59 Cloudy with Drizzle 41 5 39 3.9 93 93 N 17 28 30.09 1019 2 3 0.01 0.25
6:45 pm 18:45 Cloudy with Drizzle 40 4.4 39 3.9 97 97 N 20 31 30.09 1019 3 5 0.00 0.03
6:59 pm 18:59 Cloudy with Drizzle 40 4.4 38 3.3 93 93 N 20 31 30.10 1019 3 5 0.00 0.03
7:15 pm 19:15 Cloudy with Drizzle 40 4.4 38 3.3 93 93 N 20 31 30.12 1020 3 4 0.01 0.25
7:59 pm 19:59 Cloudy with Drizzle 39 3.9 37 2.8 93 93 N 21 33 30.11 1020 3 5 0.01 0.25
8:59 pm 20:59 Cloudy with Light Rain 37 2.8 35 1.7 93 93 N 18 30 30.12 1020 5 8 0.02 0.51
9:59 pm 21:59 Cloudy 36 2.2 33 0.6 89 89 N 18 30 30.14 1021 7 11 0.00 0.03
10:59 pm 22:59 Cloudy with Drizzle 35 1.7 32 0 89 89 N 18 30 30.14 1021 6 10 0.00 0.03
11:59 pm 23:59 Cloudy with Light Rain 35 1.7 32 0 89 89 N 16 26 30.14 1021 6 10 0.02 0.51

Powered by AerisWeather